TimeEST,TemperatureF,Dew PointF,Humidity,Sea Level PressureIn,VisibilityMPH,Wind Direction,Wind SpeedMPH,Gust SpeedMPH,PrecipitationIn,Events,Conditions,WindDirDegrees,DateUTC
12:15 AM,33.8,33.8,100,30.05,1.2,West,4.6,-,N/A,,Overcast,270,2013-12-09 05:15:00
12:35 AM,33.8,33.8,100,30.04,2.0,West,6.9,-,N/A,,Overcast,270,2013-12-09 05:35:00
12:55 AM,33.8,33.8,100,30.04,2.0,West,6.9,-,N/A,,Light Drizzle,270,2013-12-09 05:55:00
1:15 AM,33.8,33.8,100,30.04,2.5,West,6.9,-,N/A,,Drizzle,260,2013-12-09 06:15:00
1:35 AM,33.8,33.8,100,30.03,2.0,West,6.9,-,N/A,Rain,Rain,270,2013-12-09 06:35:00
1:55 AM,33.8,33.8,100,30.03,2.0,West,6.9,-,N/A,Rain,Rain,260,2013-12-09 06:55:00
2:15 AM,35.6,35.6,100,30.04,2.5,West,8.1,-,N/A,Rain,Light Rain,260,2013-12-09 07:15:00
2:35 AM,35.6,35.6,100,30.05,-9999.0,West,11.5,-,N/A,,Overcast,270,2013-12-09 07:35:00
2:55 AM,35.6,35.6,100,30.05,7.0,West,9.2,-,N/A,,Overcast,270,2013-12-09 07:55:00
3:15 AM,35.6,35.6,100,30.05,4.0,West,6.9,-,N/A,,Overcast,260,2013-12-09 08:15:00
3:35 AM,35.6,35.6,100,30.05,5.0,West,8.1,-,N/A,,Drizzle,270,2013-12-09 08:35:00
3:55 AM,35.6,35.6,100,30.05,4.0,West,9.2,-,N/A,,Overcast,270,2013-12-09 08:55:00
4:15 AM,35.6,35.6,100,30.06,7.0,West,10.4,-,N/A,,Overcast,270,2013-12-09 09:15:00
4:35 AM,35.6,35.6,100,30.05,7.0,West,10.4,17.3,N/A,,Overcast,270,2013-12-09 09:35:00
4:55 AM,35.6,35.6,100,30.06,10.0,West,11.5,16.1,N/A,,Overcast,270,2013-12-09 09:55:00
5:35 AM,35.6,35.6,100,30.08,5.0,WNW,10.4,-,N/A,,Overcast,290,2013-12-09 10:35:00
5:55 AM,33.8,33.8,100,30.09,-9999.0,WNW,12.7,17.3,N/A,,Overcast,290,2013-12-09 10:55:00
6:15 AM,33.8,33.8,100,30.09,10.0,West,10.4,16.1,N/A,,Overcast,280,2013-12-09 11:15:00
6:35 AM,33.8,33.8,100,30.10,-9999.0,West,10.4,18.4,N/A,,Overcast,270,2013-12-09 11:35:00
6:55 AM,33.8,33.8,100,30.11,10.0,West,9.2,17.3,N/A,,Overcast,280,2013-12-09 11:55:00
7:15 AM,33.8,32.0,93,30.12,-9999.0,West,13.8,19.6,N/A,,Overcast,280,2013-12-09 12:15:00
7:35 AM,33.8,32.0,93,30.13,10.0,WNW,9.2,19.6,N/A,,Overcast,290,2013-12-09 12:35:00
7:55 AM,33.8,32.0,93,30.14,10.0,WNW,9.2,16.1,N/A,,Overcast,290,2013-12-09 12:55:00
8:15 AM,33.8,32.0,93,30.15,10.0,West,9.2,-,N/A,,Overcast,280,2013-12-09 13:15:00
8:35 AM,33.8,32.0,93,30.15,7.0,West,8.1,-,N/A,,Overcast,270,2013-12-09 13:35:00
8:55 AM,33.8,32.0,93,30.15,-9999.0,West,8.1,-,N/A,,Unknown,270,2013-12-09 13:55:00
9:15 AM,33.8,32.0,93,30.16,-9999.0,West,10.4,16.1,N/A,,Overcast,280,2013-12-09 14:15:00
9:35 AM,33.8,32.0,93,30.17,5.0,West,12.7,17.3,N/A,,Overcast,280,2013-12-09 14:35:00
9:55 AM,33.8,32.0,93,30.18,-9999.0,West,10.4,16.1,N/A,,Overcast,270,2013-12-09 14:55:00
10:15 AM,33.8,32.0,93,30.18,-9999.0,WNW,9.2,-,N/A,,Overcast,290,2013-12-09 15:15:00
10:35 AM,33.8,32.0,93,30.19,7.0,West,8.1,-,N/A,Snow,Light Snow,280,2013-12-09 15:35:00
10:55 AM,33.8,32.0,93,30.20,10.0,WNW,10.4,-,N/A,,Overcast,300,2013-12-09 15:55:00
11:15 AM,33.8,32.0,93,30.20,10.0,WNW,5.8,-,N/A,,Overcast,300,2013-12-09 16:15:00
11:35 AM,33.8,32.0,93,30.20,10.0,West,6.9,-,N/A,,Overcast,280,2013-12-09 16:35:00
11:55 AM,32.0,32.0,100,30.19,10.0,WNW,6.9,-,N/A,,Overcast,290,2013-12-09 16:55:00
12:15 PM,33.8,32.0,93,30.18,10.0,WNW,8.1,-,N/A,,Overcast,290,2013-12-09 17:15:00
12:35 PM,33.8,32.0,93,30.17,10.0,WNW,6.9,-,N/A,,Overcast,290,2013-12-09 17:35:00
12:55 PM,33.8,32.0,93,30.17,10.0,WNW,5.8,-,N/A,,Overcast,290,2013-12-09 17:55:00
1:15 PM,33.8,32.0,93,30.17,10.0,WNW,5.8,-,N/A,,Overcast,290,2013-12-09 18:15:00
1:35 PM,33.8,32.0,93,30.17,10.0,West,6.9,-,N/A,,Overcast,280,2013-12-09 18:35:00
1:55 PM,33.8,32.0,93,30.18,10.0,WNW,10.4,-,N/A,,Overcast,290,2013-12-09 18:55:00
2:15 PM,32.0,30.2,93,30.19,10.0,WNW,8.1,16.1,N/A,,Overcast,290,2013-12-09 19:15:00
2:35 PM,32.0,30.2,93,30.19,-9999.0,West,9.2,16.1,N/A,,Overcast,270,2013-12-09 19:35:00
2:55 PM,32.0,30.2,93,30.19,-9999.0,WNW,9.2,17.3,N/A,,Overcast,290,2013-12-09 19:55:00
3:15 PM,32.0,30.2,93,30.19,-9999.0,West,8.1,-,N/A,,Overcast,270,2013-12-09 20:15:00
3:35 PM,32.0,30.2,93,30.20,-9999.0,West,9.2,-,N/A,,Overcast,280,2013-12-09 20:35:00
3:55 PM,32.0,28.4,87,30.20,-9999.0,WNW,8.1,-,N/A,,Overcast,300,2013-12-09 20:55:00
4:15 PM,32.0,28.4,87,30.20,-9999.0,WNW,4.6,-,N/A,,Overcast,290,2013-12-09 21:15:00
4:35 PM,32.0,28.4,87,30.21,-9999.0,WNW,9.2,-,N/A,,Overcast,300,2013-12-09 21:35:00
4:55 PM,32.0,28.4,87,30.22,-9999.0,NW,4.6,-,N/A,,Overcast,310,2013-12-09 21:55:00
5:15 PM,32.0,28.4,87,30.22,-9999.0,NW,6.9,-,N/A,,Overcast,310,2013-12-09 22:15:00
5:35 PM,32.0,28.4,87,30.23,-9999.0,NW,6.9,-,N/A,,Overcast,310,2013-12-09 22:35:00
5:55 PM,32.0,26.6,80,30.23,-9999.0,NW,8.1,-,N/A,,Overcast,310,2013-12-09 22:55:00
6:15 PM,30.2,26.6,86,30.23,-9999.0,NW,6.9,-,N/A,,Overcast,320,2013-12-09 23:15:00
6:35 PM,30.2,26.6,86,30.23,-9999.0,WNW,3.5,-,N/A,,Overcast,300,2013-12-09 23:35:00
6:55 PM,30.2,26.6,86,30.23,-9999.0,WNW,4.6,-,N/A,,Overcast,300,2013-12-09 23:55:00
7:15 PM,30.2,26.6,86,30.23,-9999.0,NNW,4.6,-,N/A,,Overcast,330,2013-12-10 00:15:00
7:35 PM,30.2,26.6,86,30.23,-9999.0,NW,5.8,-,N/A,,Overcast,310,2013-12-10 00:35:00
7:55 PM,30.2,26.6,86,30.23,-9999.0,NW,3.5,-,N/A,,Overcast,310,2013-12-10 00:55:00
8:15 PM,30.2,26.6,86,30.23,-9999.0,WNW,3.5,-,N/A,,Overcast,290,2013-12-10 01:15:00
8:35 PM,30.2,26.6,86,30.24,-9999.0,NW,6.9,-,N/A,,Overcast,310,2013-12-10 01:35:00
8:55 PM,30.2,26.6,86,30.22,-9999.0,NNW,3.5,-,N/A,,Overcast,330,2013-12-10 01:55:00
9:15 PM,30.2,26.6,86,30.23,-9999.0,NW,5.8,-,N/A,,Overcast,320,2013-12-10 02:15:00
9:35 PM,28.4,24.8,86,30.20,-9999.0,NNW,5.8,-,N/A,,Overcast,340,2013-12-10 02:35:00
9:55 PM,28.4,24.8,86,30.20,-9999.0,NNW,3.5,-,N/A,,Overcast,340,2013-12-10 02:55:00
10:15 PM,28.4,24.8,86,30.18,-9999.0,Calm,Calm,-,N/A,,Overcast,0,2013-12-10 03:15:00
10:35 PM,28.4,24.8,86,30.19,-9999.0,NNW,4.6,-,N/A,,Overcast,340,2013-12-10 03:35:00
10:55 PM,28.4,24.8,86,30.18,-9999.0,NNE,4.6,-,N/A,,Overcast,20,2013-12-10 03:55:00
11:15 PM,28.4,24.8,86,30.16,-9999.0,NNE,8.1,-,N/A,,Overcast,20,2013-12-10 04:15:00
11:35 PM,28.4,23.0,80,30.17,-9999.0,North,3.5,-,N/A,,Overcast,10,2013-12-10 04:35:00
11:55 PM,28.4,23.0,80,30.17,-9999.0,North,3.5,-,N/A,,Overcast,360,2013-12-10 04:55:00